When you browse on this site, cookies collect data to enhance your experience and personalize the content and advertising you see.
Visit our Privacy Policy to learn more. By continuing to use the site, you agree to this use of cookies and data.
  • In Schweiz
  • Länderverzeichnis
  • Für 7 Tage
  • Wassertemperatur
  • Wetterkarte
  • Widgets
  • user-avatar
    Anmelden

    Stündliche Wetter Bururi

    Heute, 29 März, Sonntag

    Zeit Temperatur Niederschläge Wind Luftdruck Luftfeuchtigkeit
    00:00 +18°C° 0 mm 1 m/S 616 mmHg 83%
    01:00 +18°C° 0 mm 1 m/S 616 mmHg 82%
    02:00 +18°C° 0 mm 1 m/S 616 mmHg 81%
    03:00 +18°C° 0 mm 1 m/S 616 mmHg 81%
    04:00 +16°C° 0 mm 1 m/S 616 mmHg 82%
    05:00 +16°C° 0 mm 1 m/S 615 mmHg 82%
    06:00 +18°C° 0 mm 1 m/S 616 mmHg 82%
    07:00 +19°C° 0 mm 1 m/S 618 mmHg 81%
    08:00 +20°C° 0 mm 1 m/S 618 mmHg 82%
    09:00 +21°C° 0.4 mm 1 m/S 618 mmHg 79%
    10:00 +22°C° 0.4 mm 1 m/S 618 mmHg 75%
    11:00 +23°C° 0.4 mm 1 m/S 618 mmHg 72%
    12:00 +23°C° 1.1 mm 1 m/S 618 mmHg 73%
    13:00 +23°C° 1.1 mm 1 m/S 617 mmHg 74%
    14:00 +22°C° 0 mm 1 m/S 616 mmHg 80%
    15:00 +22°C° 1.1 mm 1 m/S 616 mmHg 83%
    16:00 +21°C° 1.1 mm 1 m/S 615 mmHg 85%
    17:00 +21°C° 1.1 mm 1 m/S 615 mmHg 88%
    18:00 +20°C° 0.3 mm 1 m/S 615 mmHg 88%
    19:00 +19°C° 0.3 mm 1 m/S 616 mmHg 89%
    20:00 +18°C° 0.3 mm 1 m/S 616 mmHg 90%
    21:00 +16°C° 0 mm 1 m/S 616 mmHg 87%
    22:00 +16°C° 0 mm 1 m/S 616 mmHg 85%
    23:00 +16°C° 0 mm 1 m/S 615 mmHg 82%

    Morgen, 30 März, Montag

    Zeit Temperatur Niederschläge Wind Luftdruck Luftfeuchtigkeit
    00:00 +16°C° 0 mm 1 m/S 615 mmHg 82%
    01:00 +16°C° 0 mm 1 m/S 615 mmHg 82%
    02:00 +16°C° 0 mm 1 m/S 615 mmHg 82%
    03:00 +16°C° 0 mm 1 m/S 615 mmHg 81%
    04:00 +15°C° 0 mm 1 m/S 615 mmHg 80%
    05:00 +15°C° 0 mm 2 m/S 615 mmHg 79%
    06:00 +18°C° 0 mm 1 m/S 616 mmHg 77%
    07:00 +19°C° 0 mm 1 m/S 617 mmHg 75%
    08:00 +21°C° 0 mm 1 m/S 618 mmHg 74%
    09:00 +22°C° 0 mm 1 m/S 618 mmHg 70%
    10:00 +23°C° 0 mm 1 m/S 618 mmHg 66%
    11:00 +25°C° 0 mm 1 m/S 618 mmHg 62%
    12:00 +25°C° 0.6 mm 1 m/S 617 mmHg 63%
    13:00 +25°C° 0.6 mm 1 m/S 617 mmHg 65%
    14:00 +25°C° 0.6 mm 1 m/S 616 mmHg 67%
    15:00 +24°C° 0.8 mm 1 m/S 616 mmHg 72%
    16:00 +23°C° 0.8 mm 1 m/S 615 mmHg 77%
    17:00 +22°C° 0.8 mm 1 m/S 614 mmHg 82%
    18:00 +21°C° 0.8 mm 1 m/S 615 mmHg 84%
    19:00 +20°C° 0.8 mm 1 m/S 615 mmHg 86%
    20:00 +18°C° 0.8 mm 1 m/S 615 mmHg 89%
    21:00 +18°C° 0.2 mm 1 m/S 616 mmHg 88%
    22:00 +18°C° 0.2 mm 1 m/S 616 mmHg 87%
    23:00 +18°C° 0.2 mm 1 m/S 616 mmHg 86%

    übermorgen, 31 März, Dienstag

    Zeit Temperatur Niederschläge Wind Luftdruck Luftfeuchtigkeit
    00:00 +16°C° 0.1 mm 1 m/S 616 mmHg 86%
    01:00 +16°C° 0.1 mm 1 m/S 615 mmHg 86%
    02:00 +16°C° 0.1 mm 1 m/S 615 mmHg 86%
    03:00 +16°C° 0 mm 1 m/S 615 mmHg 86%
    04:00 +16°C° 0 mm 1 m/S 615 mmHg 86%
    05:00 +16°C° 0 mm 1 m/S 615 mmHg 86%
    06:00 +18°C° 0.1 mm 1 m/S 616 mmHg 84%
    07:00 +20°C° 0.1 mm 1 m/S 617 mmHg 82%
    08:00 +21°C° 0.1 mm 1 m/S 619 mmHg 80%
    09:00 +22°C° 0.7 mm 1 m/S 618 mmHg 79%
    10:00 +23°C° 0.7 mm 1 m/S 618 mmHg 77%
    11:00 +23°C° 0.7 mm 1 m/S 618 mmHg 76%
    12:00 +23°C° 1.3 mm 1 m/S 617 mmHg 77%
    13:00 +24°C° 1.3 mm 1 m/S 617 mmHg 77%
    14:00 +24°C° 1.3 mm 1 m/S 616 mmHg 77%
    15:00 +23°C° 1.5 mm 1 m/S 616 mmHg 80%
    16:00 +23°C° 1.5 mm 1 m/S 616 mmHg 83%
    17:00 +20°C° 1.5 mm 0 m/S 615 mmHg 87%
    18:00 +21°C° 1.3 mm 1 m/S 616 mmHg 87%
    19:00 +20°C° 1.3 mm 1 m/S 616 mmHg 88%
    20:00 +19°C° 1.3 mm 1 m/S 616 mmHg 89%
    21:00 +19°C° 0.3 mm 1 m/S 616 mmHg 88%
    22:00 +18°C° 0.3 mm 1 m/S 616 mmHg 88%
    23:00 +18°C° 0.3 mm 1 m/S 616 mmHg 88%

    1 April, Mittwoch

    Zeit Temperatur Niederschläge Wind Luftdruck Luftfeuchtigkeit
    00:00 +18°C° 0.1 mm 1 m/S 616 mmHg 87%
    01:00 +18°C° 0.1 mm 1 m/S 616 mmHg 87%
    02:00 +18°C° 0.1 mm 1 m/S 616 mmHg 86%
    03:00 +16°C° 0 mm 1 m/S 616 mmHg 86%
    04:00 +16°C° 0 mm 1 m/S 615 mmHg 86%
    05:00 +16°C° 0 mm 1 m/S 615 mmHg 86%
    06:00 +18°C° 0 mm 1 m/S 616 mmHg 85%
    07:00 +20°C° 0 mm 1 m/S 617 mmHg 83%
    08:00 +21°C° 0 mm 1 m/S 618 mmHg 81%
    09:00 +22°C° 0 mm 1 m/S 618 mmHg 75%
    10:00 +24°C° 0 mm 2 m/S 619 mmHg 69%
    11:00 +25°C° 0 mm 2 m/S 619 mmHg 63%
    12:00 +25°C° 0.1 mm 2 m/S 618 mmHg 63%
    13:00 +25°C° 0.1 mm 1 m/S 618 mmHg 62%
    14:00 +26°C° 0.1 mm 1 m/S 617 mmHg 62%
    15:00 +25°C° 0.2 mm 1 m/S 617 mmHg 67%
    16:00 +24°C° 0.2 mm 1 m/S 616 mmHg 73%
    17:00 +23°C° 0.2 mm 1 m/S 616 mmHg 78%
    18:00 +22°C° 0.4 mm 1 m/S 616 mmHg 81%
    19:00 +20°C° 0.4 mm 1 m/S 616 mmHg 84%
    20:00 +19°C° 0.4 mm 1 m/S 615 mmHg 87%
    21:00 +18°C° 0 mm 1 m/S 616 mmHg 86%
    22:00 +18°C° 0 mm 1 m/S 616 mmHg 86%
    23:00 +18°C° 0 mm 1 m/S 616 mmHg 85%

    2 April, Donnerstag

    Zeit Temperatur Niederschläge Wind Luftdruck Luftfeuchtigkeit
    00:00 +18°C° 0 mm 1 m/S 615 mmHg 85%
    01:00 +18°C° 0 mm 1 m/S 615 mmHg 84%
    02:00 +18°C° 0 mm 1 m/S 615 mmHg 83%
    03:00 +16°C° 0 mm 1 m/S 615 mmHg 82%
    04:00 +16°C° 0 mm 1 m/S 615 mmHg 82%
    05:00 +16°C° 0 mm 1 m/S 615 mmHg 81%
    06:00 +19°C° 0 mm 1 m/S 616 mmHg 79%
    07:00 +20°C° 0 mm 1 m/S 617 mmHg 78%
    08:00 +19°C° 0 mm 0 m/S 618 mmHg 76%
    09:00 +22°C° 0 mm 1 m/S 618 mmHg 71%
    10:00 +24°C° 0 mm 1 m/S 618 mmHg 66%
    11:00 +25°C° 0 mm 1 m/S 618 mmHg 60%
    12:00 +25°C° 0.4 mm 1 m/S 617 mmHg 62%
    13:00 +25°C° 0.4 mm 1 m/S 616 mmHg 64%
    14:00 +25°C° 0.4 mm 1 m/S 615 mmHg 66%
    15:00 +24°C° 0.3 mm 1 m/S 615 mmHg 71%
    16:00 +24°C° 0.3 mm 1 m/S 615 mmHg 76%
    17:00 +23°C° 0.3 mm 1 m/S 615 mmHg 81%
    18:00 +22°C° 0.3 mm 1 m/S 615 mmHg 83%
    19:00 +20°C° 0.3 mm 1 m/S 615 mmHg 86%
    20:00 +19°C° 0.3 mm 1 m/S 614 mmHg 88%
    21:00 +19°C° 0.1 mm 1 m/S 615 mmHg 87%
    22:00 +18°C° 0.1 mm 1 m/S 615 mmHg 87%
    23:00 +18°C° 0.1 mm 1 m/S 615 mmHg 86%

    3 April, Freitag

    Zeit Temperatur Niederschläge Wind Luftdruck Luftfeuchtigkeit
    00:00 +18°C° 0.5 mm 1 m/S 615 mmHg 86%
    01:00 +18°C° 0.5 mm 1 m/S 615 mmHg 86%
    02:00 +16°C° 0.5 mm 1 m/S 614 mmHg 86%
    03:00 +16°C° 0.6 mm 1 m/S 614 mmHg 87%
    04:00 +16°C° 0.6 mm 1 m/S 615 mmHg 87%
    05:00 +16°C° 0.6 mm 1 m/S 615 mmHg 88%
    06:00 +18°C° 0.3 mm 1 m/S 616 mmHg 87%
    07:00 +19°C° 0.3 mm 1 m/S 617 mmHg 86%
    08:00 +21°C° 0.3 mm 1 m/S 617 mmHg 85%
    09:00 +22°C° 0.6 mm 1 m/S 618 mmHg 83%
    10:00 +22°C° 0.6 mm 1 m/S 618 mmHg 81%
    11:00 +23°C° 0.6 mm 1 m/S 618 mmHg 78%
    12:00 +23°C° 1.2 mm 1 m/S 617 mmHg 79%
    13:00 +23°C° 1.2 mm 1 m/S 616 mmHg 79%
    14:00 +23°C° 1.2 mm 1 m/S 616 mmHg 80%
    15:00 +23°C° 1 mm 1 m/S 616 mmHg 82%
    16:00 +22°C° 1 mm 1 m/S 615 mmHg 85%
    17:00 +22°C° 1 mm 1 m/S 615 mmHg 87%
    18:00 +21°C° 0.6 mm 1 m/S 615 mmHg 89%
    19:00 +19°C° 0.6 mm 1 m/S 615 mmHg 90%
    20:00 +18°C° 0.6 mm 1 m/S 615 mmHg 92%
    21:00 +18°C° 0.3 mm 1 m/S 615 mmHg 91%
    22:00 +16°C° 0.3 mm 1 m/S 616 mmHg 91%
    23:00 +16°C° 0.3 mm 1 m/S 616 mmHg 91%
    Mehr zeigen